Wetterdaten: Montag, 29.09.2014
Datum Zeit Temperatur Luftfeuchte Luftdruck Regen Wind Richtung Richtung Taupunkt Windchill Windben
29.09.2014 00:00 10,0 C 92 % 1028,4 hPa 0,0 l/m 0,0 km/h (0 Bft) S-SO 157 8,8 C 22,8 C 0,0 km/h (0 Bft)
29.09.2014 00:10 10,1 C 92 % 1028,5 hPa 0,0 l/m 0,0 km/h (0 Bft) S-SO 157 8,9 C 22,8 C 0,0 km/h (0 Bft)
29.09.2014 00:20 9,9 C 92 % 1028,5 hPa 0,0 l/m 0,0 km/h (0 Bft) S-SO 157 8,7 C 22,8 C 0,0 km/h (0 Bft)
29.09.2014 00:30 10,1 C 92 % 1028,5 hPa 0,0 l/m 0,0 km/h (0 Bft) S-SO 157 8,9 C 22,8 C 0,0 km/h (0 Bft)
29.09.2014 00:40 10,1 C 92 % 1028,5 hPa 0,0 l/m 0,0 km/h (0 Bft) S-SO 157 8,9 C 22,8 C 0,0 km/h (0 Bft)
29.09.2014 00:50 10,2 C 92 % 1028,4 hPa 0,0 l/m 0,0 km/h (0 Bft) S-SO 157 9,0 C 22,8 C 0,0 km/h (0 Bft)
29.09.2014 01:00 10,4 C 92 % 1028,4 hPa 0,0 l/m 0,0 km/h (0 Bft) S-SO 157 9,2 C 22,8 C 0,0 km/h (0 Bft)
29.09.2014 01:10 10,3 C 92 % 1028,5 hPa 0,0 l/m 0,0 km/h (0 Bft) S-SO 157 9,1 C 22,8 C 0,0 km/h (0 Bft)
29.09.2014 01:20 9,9 C 92 % 1028,5 hPa 0,0 l/m 0,0 km/h (0 Bft) S-SO 157 8,7 C 22,8 C 0,0 km/h (0 Bft)
29.09.2014 01:30 9,8 C 92 % 1028,4 hPa 0,0 l/m 0,0 km/h (0 Bft) S-SO 157 8,6 C 22,8 C 0,0 km/h (0 Bft)
29.09.2014 01:40 9,8 C 92 % 1028,4 hPa 0,0 l/m 0,0 km/h (0 Bft) S-SO 157 8,6 C 22,8 C 0,0 km/h (0 Bft)
29.09.2014 01:50 9,5 C 92 % 1028,3 hPa 0,0 l/m 0,0 km/h (0 Bft) S-SO 157 8,3 C 22,8 C 0,0 km/h (0 Bft)
29.09.2014 02:00 9,5 C 92 % 1028,3 hPa 0,0 l/m 0,0 km/h (0 Bft) S-SO 157 8,3 C 22,8 C 0,0 km/h (0 Bft)
29.09.2014 02:10 9,7 C 92 % 1028,4 hPa 0,0 l/m 0,0 km/h (0 Bft) S-SO 157 8,5 C 22,8 C 0,0 km/h (0 Bft)
29.09.2014 02:20 10,4 C 93 % 1028,4 hPa 0,0 l/m 0,0 km/h (0 Bft) S-SO 157 9,3 C 22,8 C 0,0 km/h (0 Bft)
29.09.2014 02:28 9,8 C 93 % 1028,3 hPa 0,0 l/m 0,0 km/h (0 Bft) S-SO 157 8,7 C 22,8 C 0,0 km/h (0 Bft)
29.09.2014 02:30 9,7 C 93 % 1028,3 hPa 0,0 l/m 0,0 km/h (0 Bft) S-SO 157 8,6 C 22,8 C 0,0 km/h (0 Bft)
29.09.2014 02:40 9,7 C 93 % 1028,3 hPa 0,0 l/m 0,0 km/h (0 Bft) S-SO 157 8,6 C 22,8 C 0,0 km/h (0 Bft)
29.09.2014 02:50 9,4 C 93 % 1028,1 hPa 0,0 l/m 0,0 km/h (0 Bft) S-SO 157 8,3 C 22,8 C 0,0 km/h (0 Bft)
29.09.2014 03:00 9,5 C 93 % 1028,1 hPa 0,0 l/m 0,0 km/h (0 Bft) S-SO 157 8,4 C 22,8 C 0,0 km/h (0 Bft)
29.09.2014 03:10 9,8 C 93 % 1027,8 hPa 0,0 l/m 0,0 km/h (0 Bft) S-SO 157 8,7 C 22,8 C 0,0 km/h (0 Bft)
29.09.2014 03:20 10,1 C 93 % 1027,8 hPa 0,0 l/m 0,0 km/h (0 Bft) S-SO 157 9,0 C 22,8 C 0,0 km/h (0 Bft)
29.09.2014 03:30 9,9 C 94 % 1027,8 hPa 0,0 l/m 0,0 km/h (0 Bft) S-SO 157 9,0 C 22,8 C 0,0 km/h (0 Bft)
29.09.2014 03:40 9,8 C 94 % 1027,8 hPa 0,0 l/m 0,0 km/h (0 Bft) S-SO 157 8,9 C 22,8 C 0,0 km/h (0 Bft)
29.09.2014 03:50 9,4 C 94 % 1027,4 hPa 0,0 l/m 0,0 km/h (0 Bft) S-SO 157 8,5 C 22,8 C 0,0 km/h (0 Bft)
29.09.2014 04:00 9,3 C 94 % 1027,4 hPa 0,0 l/m 0,0 km/h (0 Bft) S-SO 157 8,4 C 22,8 C 0,0 km/h (0 Bft)
29.09.2014 04:10 9,2 C 94 % 1027,2 hPa 0,0 l/m 0,0 km/h (0 Bft) S-SO 157 8,3 C 22,8 C 0,0 km/h (0 Bft)
29.09.2014 04:20 9,4 C 94 % 1027,2 hPa 0,0 l/m 0,0 km/h (0 Bft) S-SO 157 8,5 C 22,8 C 0,0 km/h (0 Bft)
29.09.2014 04:30 9,0 C 94 % 1027,4 hPa 0,0 l/m 0,0 km/h (0 Bft) S-SO 157 8,1 C 22,8 C 0,0 km/h (0 Bft)
29.09.2014 04:40 9,3 C 94 % 1027,4 hPa 0,0 l/m 0,0 km/h (0 Bft) S-SO 157 8,4 C 22,8 C 0,0 km/h (0 Bft)
29.09.2014 04:50 9,3 C 94 % 1027,6 hPa 0,0 l/m 0,0 km/h (0 Bft) S-SO 157 8,4 C 22,8 C 0,0 km/h (0 Bft)
29.09.2014 05:00 9,2 C 94 % 1027,6 hPa 0,0 l/m 0,0 km/h (0 Bft) S-SO 157 8,3 C 22,8 C 0,0 km/h (0 Bft)
29.09.2014 05:10 9,0 C 94 % 1027,6 hPa 0,0 l/m 0,0 km/h (0 Bft) S-SO 157 8,1 C 22,8 C 0,0 km/h (0 Bft)
29.09.2014 05:20 8,9 C 94 % 1027,6 hPa 0,0 l/m 0,0 km/h (0 Bft) S-SO 157 8,0 C 22,8 C 0,0 km/h (0 Bft)
29.09.2014 05:28 8,7 C 95 % 1027,7 hPa 0,0 l/m 0,0 km/h (0 Bft) S-SO 157 7,9 C 22,8 C 0,0 km/h (0 Bft)
29.09.2014 05:30 8,9 C 95 % 1027,7 hPa 0,0 l/m 0,0 km/h (0 Bft) S-SO 157 8,1 C 22,8 C 0,0 km/h (0 Bft)
29.09.2014 05:40 8,9 C 95 % 1027,7 hPa 0,0 l/m 0,0 km/h (0 Bft) S-SO 157 8,1 C 22,8 C 0,0 km/h (0 Bft)
29.09.2014 05:50 9,0 C 95 % 1027,6 hPa 0,0 l/m 0,0 km/h (0 Bft) S-SO 157 8,2 C 22,8 C 0,0 km/h (0 Bft)
29.09.2014 06:00 9,0 C 95 % 1027,6 hPa 0,0 l/m 0,0 km/h (0 Bft) S-SO 157 8,2 C 22,8 C 0,0 km/h (0 Bft)
29.09.2014 06:10 9,2 C 95 % 1027,5 hPa 0,0 l/m 0,0 km/h (0 Bft) S-SO 157 8,4 C 22,8 C 0,0 km/h (0 Bft)
29.09.2014 06:20 9,1 C 95 % 1027,5 hPa 0,0 l/m 0,0 km/h (0 Bft) S-SO 157 8,3 C 22,8 C 0,0 km/h (0 Bft)
29.09.2014 06:30 8,8 C 95 % 1027,8 hPa 0,0 l/m 0,0 km/h (0 Bft) S-SO 157 8,0 C 22,8 C 0,0 km/h (0 Bft)
29.09.2014 06:40 8,8 C 95 % 1027,8 hPa 0,0 l/m 0,0 km/h (0 Bft) S-SO 157 8,0 C 22,8 C 0,0 km/h (0 Bft)
29.09.2014 06:50 8,6 C 95 % 1027,9 hPa 0,0 l/m 0,0 km/h (0 Bft) S-SO 157 7,8 C 22,8 C 0,0 km/h (0 Bft)
29.09.2014 07:00 8,4 C 95 % 1027,9 hPa 0,0 l/m 0,0 km/h (0 Bft) S-SO 157 7,6 C 22,8 C 0,0 km/h (0 Bft)
29.09.2014 07:10 8,6 C 95 % 1027,9 hPa 0,0 l/m 0,0 km/h (0 Bft) S-SO 157 7,8 C 22,8 C 0,0 km/h (0 Bft)
29.09.2014 07:20 8,4 C 95 % 1027,9 hPa 0,0 l/m 0,0 km/h (0 Bft) S-SO 157 7,6 C 22,8 C 0,0 km/h (0 Bft)
29.09.2014 07:30 8,6 C 95 % 1028,1 hPa 0,0 l/m 0,0 km/h (0 Bft) S-SO 157 7,8 C 22,8 C 0,0 km/h (0 Bft)
29.09.2014 07:40 8,9 C 95 % 1028,1 hPa 0,0 l/m 0,0 km/h (0 Bft) S-SO 157 8,1 C 22,8 C 0,0 km/h (0 Bft)
29.09.2014 07:50 9,7 C 95 % 1028,1 hPa 0,0 l/m 0,0 km/h (0 Bft) S-SO 157 8,9 C 22,8 C 0,0 km/h (0 Bft)
29.09.2014 08:00 8,6 C 95 % 1028,1 hPa 0,0 l/m 0,0 km/h (0 Bft) S-SO 157 7,8 C 22,8 C 0,0 km/h (0 Bft)
29.09.2014 08:10 8,5 C 95 % 1028,2 hPa 0,0 l/m 0,0 km/h (0 Bft) S-SO 157 7,7 C 22,8 C 0,0 km/h (0 Bft)
29.09.2014 08:18 8,7 C 95 % 1028,2 hPa 0,0 l/m 0,0 km/h (0 Bft) S-SO 157 7,9 C 22,8 C 0,0 km/h (0 Bft)
29.09.2014 08:20 9,5 C 95 % 1028,4 hPa 0,0 l/m 0,0 km/h (0 Bft) S-SO 157 8,7 C 22,8 C 0,0 km/h (0 Bft)
29.09.2014 08:30 9,8 C 95 % 1028,4 hPa 0,0 l/m 0,0 km/h (0 Bft) S-SO 157 9,0 C 22,8 C 0,0 km/h (0 Bft)
29.09.2014 08:40 9,8 C 95 % 1028,4 hPa 0,0 l/m 0,0 km/h (0 Bft) S-SO 157 9,0 C 22,8 C 0,0 km/h (0 Bft)
29.09.2014 08:50 10,3 C 95 % 1028,4 hPa 0,0 l/m 0,0 km/h (0 Bft) S-SO 157 9,5 C 22,8 C 0,0 km/h (0 Bft)
29.09.2014 09:00 10,7 C 95 % 1028,4 hPa 0,0 l/m 0,0 km/h (0 Bft) S-SO 157 9,9 C 22,8 C 0,0 km/h (0 Bft)
29.09.2014 09:10 10,9 C 95 % 1028,4 hPa 0,0 l/m 0,0 km/h (0 Bft) S-SO 157 10,1 C 22,8 C 0,0 km/h (0 Bft)
29.09.2014 09:20 11,4 C 95 % 1028,4 hPa 0,0 l/m 0,0 km/h (0 Bft) S-SO 157 10,6 C 22,8 C 0,0 km/h (0 Bft)
29.09.2014 09:30 11,8 C 95 % 1027,7 hPa 0,0 l/m 0,0 km/h (0 Bft) S-SO 157 11,0 C 22,8 C 0,0 km/h (0 Bft)
29.09.2014 09:40 13,0 C 94 % 1027,7 hPa 0,0 l/m 0,0 km/h (0 Bft) S-SO 157 12,1 C 22,8 C 0,0 km/h (0 Bft)
29.09.2014 09:50 13,9 C 94 % 1028,4 hPa 0,0 l/m 0,0 km/h (0 Bft) S-SO 157 12,9 C 22,8 C 0,0 km/h (0 Bft)
29.09.2014 10:00 13,8 C 94 % 1028,4 hPa 0,0 l/m 0,0 km/h (0 Bft) S-SO 157 12,9 C 22,8 C 0,0 km/h (0 Bft)
29.09.2014 10:10 15,7 C 93 % 1028,6 hPa 0,0 l/m 0,0 km/h (0 Bft) S-SO 157 14,6 C 22,8 C 0,0 km/h (0 Bft)
29.09.2014 10:20 17,3 C 88 % 1028,6 hPa 0,0 l/m 0,0 km/h (0 Bft) S-SO 157 15,3 C 22,8 C 0,0 km/h (0 Bft)
29.09.2014 10:30 18,2 C 84 % 1028,5 hPa 0,0 l/m 0,0 km/h (0 Bft) S-SO 157 15,4 C 22,8 C 0,0 km/h (0 Bft)
29.09.2014 10:40 17,8 C 83 % 1028,5 hPa 0,0 l/m 0,0 km/h (0 Bft) S-SO 157 14,9 C 22,8 C 0,0 km/h (0 Bft)
29.09.2014 10:50 18,9 C 79 % 1028,8 hPa 0,0 l/m 0,0 km/h (0 Bft) S-SO 157 15,2 C 22,8 C 0,0 km/h (0 Bft)
29.09.2014 11:00 17,8 C 79 % 1028,8 hPa 0,0 l/m 0,0 km/h (0 Bft) S-SO 157 14,1 C 22,8 C 0,0 km/h (0 Bft)
29.09.2014 11:10 19,1 C 71 % 1028,7 hPa 0,0 l/m 0,0 km/h (0 Bft) S-SO 157 13,7 C 22,8 C 0,0 km/h (0 Bft)
29.09.2014 11:18 19,6 C 70 % 1028,7 hPa 0,0 l/m 0,0 km/h (0 Bft) S-SO 157 14,0 C 22,8 C 0,0 km/h (0 Bft)
29.09.2014 11:20 21,3 C 65 % 1028,6 hPa 0,0 l/m 0,0 km/h (0 Bft) S-SO 157 14,4 C 22,8 C 0,0 km/h (0 Bft)
29.09.2014 11:30 21,7 C 63 % 1028,6 hPa 0,0 l/m 0,0 km/h (0 Bft) S-SO 157 14,3 C 22,8 C 0,0 km/h (0 Bft)
29.09.2014 11:40 21,7 C 63 % 1028,6 hPa 0,0 l/m 0,0 km/h (0 Bft) S-SO 157 14,3 C 22,8 C 0,0 km/h (0 Bft)
29.09.2014 11:50 22,5 C 70 % 1029,1 hPa 0,0 l/m 0,0 km/h (0 Bft) S-SO 157 16,7 C 22,8 C 0,0 km/h (0 Bft)
29.09.2014 12:00 23,5 C 71 % 1029,1 hPa 0,0 l/m 0,0 km/h (0 Bft) S-SO 157 17,9 C 22,8 C 0,0 km/h (0 Bft)
29.09.2014 12:10 23,7 C 59 % 1028,5 hPa 0,0 l/m 0,0 km/h (0 Bft) S-SO 157 15,2 C 22,8 C 0,0 km/h (0 Bft)
29.09.2014 12:20 24,0 C 50 % 1028,5 hPa 0,0 l/m 0,0 km/h (0 Bft) S-SO 157 12,9 C 22,8 C 0,0 km/h (0 Bft)
29.09.2014 12:30 24,3 C 60 % 1028,4 hPa 0,0 l/m 0,0 km/h (0 Bft) S-SO 157 16,0 C 22,8 C 0,0 km/h (0 Bft)
29.09.2014 12:40 24,3 C 52 % 1028,4 hPa 0,0 l/m 0,0 km/h (0 Bft) S-SO 157 13,8 C 22,8 C 0,0 km/h (0 Bft)
29.09.2014 12:50 24,3 C 49 % 1028,4 hPa 0,0 l/m 0,0 km/h (0 Bft) S-SO 157 12,9 C 22,8 C 0,0 km/h (0 Bft)
29.09.2014 13:00 24,2 C 50 % 1028,4 hPa 0,0 l/m 0,0 km/h (0 Bft) S-SO 157 13,1 C 22,8 C 0,0 km/h (0 Bft)
29.09.2014 13:10 24,1 C 50 % 1028,2 hPa 0,0 l/m 0,0 km/h (0 Bft) S-SO 157 13,0 C 22,8 C 0,0 km/h (0 Bft)
29.09.2014 13:20 24,7 C 48 % 1028,2 hPa 0,0 l/m 0,0 km/h (0 Bft) S-SO 157 12,9 C 22,8 C 0,0 km/h (0 Bft)
29.09.2014 13:30 24,2 C 48 % 1028,2 hPa 0,0 l/m 0,0 km/h (0 Bft) S-SO 157 12,5 C 22,8 C 0,0 km/h (0 Bft)
29.09.2014 13:40 24,2 C 48 % 1028,2 hPa 0,0 l/m 0,0 km/h (0 Bft) S-SO 157 12,5 C 22,8 C 0,0 km/h (0 Bft)
29.09.2014 13:50 24,9 C 48 % 1028,0 hPa 0,0 l/m 0,0 km/h (0 Bft) S-SO 157 13,1 C 22,8 C 0,0 km/h (0 Bft)
29.09.2014 14:00 24,9 C 48 % 1028,0 hPa 0,0 l/m 0,0 km/h (0 Bft) S-SO 157 13,1 C 22,8 C 0,0 km/h (0 Bft)
29.09.2014 14:10 24,3 C 48 % 1028,1 hPa 0,0 l/m 0,0 km/h (0 Bft) S-SO 157 12,6 C 22,8 C 0,0 km/h (0 Bft)
29.09.2014 14:18 23,1 C 48 % 1028,1 hPa 0,0 l/m 0,0 km/h (0 Bft) S-SO 157 11,5 C 22,8 C 0,0 km/h (0 Bft)
29.09.2014 14:20 24,0 C 46 % 1028,0 hPa 0,0 l/m 0,0 km/h (0 Bft) S-SO 157 11,7 C 22,8 C 0,0 km/h (0 Bft)
29.09.2014 14:30 24,6 C 45 % 1028,0 hPa 0,0 l/m 0,0 km/h (0 Bft) S-SO 157 11,9 C 22,8 C 0,0 km/h (0 Bft)
29.09.2014 14:40 24,6 C 45 % 1028,0 hPa 0,0 l/m 0,0 km/h (0 Bft) S-SO 157 11,9 C 22,8 C 0,0 km/h (0 Bft)
29.09.2014 14:50 24,9 C 46 % 1027,9 hPa 0,0 l/m 0,0 km/h (0 Bft) S-SO 157 12,5 C 22,8 C 0,0 km/h (0 Bft)
29.09.2014 15:00 24,8 C 45 % 1027,9 hPa 0,0 l/m 0,0 km/h (0 Bft) S-SO 157 12,0 C 22,8 C 0,0 km/h (0 Bft)
29.09.2014 15:10 25,1 C 45 % 1027,8 hPa 0,0 l/m 0,0 km/h (0 Bft) S-SO 157 12,3 C 22,8 C 0,0 km/h (0 Bft)
29.09.2014 15:20 22,5 C 51 % 1027,8 hPa 0,0 l/m 0,0 km/h (0 Bft) S-SO 157 11,8 C 22,8 C 0,0 km/h (0 Bft)
29.09.2014 15:30 21,6 C 56 % 1027,6 hPa 0,0 l/m 0,0 km/h (0 Bft) S-SO 157 12,4 C 22,8 C 0,0 km/h (0 Bft)
29.09.2014 15:40 21,3 C 57 % 1027,6 hPa 0,0 l/m 0,0 km/h (0 Bft) S-SO 157 12,4 C 22,8 C 0,0 km/h (0 Bft)
29.09.2014 15:50 20,4 C 59 % 1027,5 hPa 0,0 l/m 0,0 km/h (0 Bft) S-SO 157 12,1 C 22,8 C 0,0 km/h (0 Bft)
29.09.2014 16:00 20,4 C 60 % 1027,5 hPa 0,0 l/m 0,0 km/h (0 Bft) S-SO 157 12,4 C 22,8 C 0,0 km/h (0 Bft)
29.09.2014 16:10 22,4 C 53 % 1027,2 hPa 0,0 l/m 0,0 km/h (0 Bft) S-SO 157 12,3 C 22,8 C 0,0 km/h (0 Bft)
29.09.2014 16:20 20,9 C 56 % 1027,2 hPa 0,0 l/m 0,0 km/h (0 Bft) S-SO 157 11,8 C 22,8 C 0,0 km/h (0 Bft)
29.09.2014 16:30 21,2 C 55 % 1027,1 hPa 0,0 l/m 0,0 km/h (0 Bft) S-SO 157 11,8 C 22,8 C 0,0 km/h (0 Bft)
29.09.2014 16:40 20,5 C 57 % 1027,1 hPa 0,0 l/m 0,0 km/h (0 Bft) S-SO 157 11,7 C 22,8 C 0,0 km/h (0 Bft)
29.09.2014 16:50 20,0 C 59 % 1026,9 hPa 0,0 l/m 0,0 km/h (0 Bft) S-SO 157 11,7 C 22,8 C 0,0 km/h (0 Bft)
29.09.2014 17:00 19,7 C 63 % 1026,9 hPa 0,0 l/m 0,0 km/h (0 Bft) S-SO 157 12,5 C 22,8 C 0,0 km/h (0 Bft)
29.09.2014 17:10 19,4 C 63 % 1026,9 hPa 0,0 l/m 0,0 km/h (0 Bft) S-SO 157 12,2 C 22,8 C 0,0 km/h (0 Bft)
29.09.2014 17:18 19,1 C 65 % 1026,9 hPa 0,0 l/m 0,0 km/h (0 Bft) S-SO 157 12,4 C 22,8 C 0,0 km/h (0 Bft)
29.09.2014 17:20 18,8 C 66 % 1026,8 hPa 0,0 l/m 0,0 km/h (0 Bft) S-SO 157 12,3 C 22,8 C 0,0 km/h (0 Bft)
29.09.2014 17:30 18,8 C 67 % 1026,8 hPa 0,0 l/m 0,0 km/h (0 Bft) S-SO 157 12,5 C 22,8 C 0,0 km/h (0 Bft)
29.09.2014 17:40 18,8 C 67 % 1026,8 hPa 0,0 l/m 0,0 km/h (0 Bft) S-SO 157 12,5 C 22,8 C 0,0 km/h (0 Bft)
29.09.2014 17:50 18,6 C 68 % 1026,9 hPa 0,0 l/m 0,0 km/h (0 Bft) S-SO 157 12,6 C 22,8 C 0,0 km/h (0 Bft)
29.09.2014 18:00 18,4 C 69 % 1026,9 hPa 0,0 l/m 0,0 km/h (0 Bft) S-SO 157 12,6 C 22,8 C 0,0 km/h (0 Bft)
29.09.2014 18:10 18,3 C 69 % 1027,0 hPa 0,0 l/m 0,0 km/h (0 Bft) S-SO 157 12,5 C 22,8 C 0,0 km/h (0 Bft)
29.09.2014 18:20 18,1 C 70 % 1027,0 hPa 0,0 l/m 0,0 km/h (0 Bft) S-SO 157 12,5 C 22,8 C 0,0 km/h (0 Bft)
29.09.2014 18:30 18,2 C 70 % 1026,9 hPa 0,0 l/m 0,0 km/h (0 Bft) S-SO 157 12,6 C 22,8 C 0,0 km/h (0 Bft)
29.09.2014 18:40 17,5 C 73 % 1026,9 hPa 0,0 l/m 0,0 km/h (0 Bft) S-SO 157 12,6 C 22,8 C 0,0 km/h (0 Bft)
29.09.2014 18:50 17,1 C 74 % 1026,7 hPa 0,0 l/m 0,0 km/h (0 Bft) S-SO 157 12,4 C 22,8 C 0,0 km/h (0 Bft)
29.09.2014 19:00 16,2 C 75 % 1026,7 hPa 0,0 l/m 0,0 km/h (0 Bft) S-SO 157 11,8 C 22,8 C 0,0 km/h (0 Bft)
29.09.2014 19:10 15,3 C 79 % 1026,9 hPa 0,0 l/m 0,0 km/h (0 Bft) S-SO 157 11,7 C 22,8 C 0,0 km/h (0 Bft)
29.09.2014 19:20 15,0 C 81 % 1026,9 hPa 0,0 l/m 0,0 km/h (0 Bft) S-SO 157 11,8 C 22,8 C 0,0 km/h (0 Bft)
29.09.2014 19:30 14,5 C 82 % 1026,7 hPa 0,0 l/m 0,0 km/h (0 Bft) S-SO 157 11,5 C 22,8 C 0,0 km/h (0 Bft)
29.09.2014 19:40 14,7 C 83 % 1026,7 hPa 0,0 l/m 0,0 km/h (0 Bft) S-SO 157 11,8 C 22,8 C 0,0 km/h (0 Bft)
29.09.2014 19:50 14,0 C 83 % 1026,7 hPa 0,0 l/m 0,0 km/h (0 Bft) S-SO 157 11,2 C 22,8 C 0,0 km/h (0 Bft)
29.09.2014 20:00 14,0 C 85 % 1026,7 hPa 0,0 l/m 0,0 km/h (0 Bft) S-SO 157 11,5 C 22,8 C 0,0 km/h (0 Bft)
29.09.2014 20:10 13,7 C 85 % 1026,5 hPa 0,0 l/m 0,0 km/h (0 Bft) S-SO 157 11,2 C 22,8 C 0,0 km/h (0 Bft)
29.09.2014 20:18 13,1 C 85 % 1026,5 hPa 0,0 l/m 0,0 km/h (0 Bft) S-SO 157 10,6 C 22,8 C 0,0 km/h (0 Bft)
29.09.2014 20:20 13,3 C 86 % 1026,8 hPa 0,0 l/m 0,0 km/h (0 Bft) S-SO 157 11,0 C 22,8 C 0,0 km/h (0 Bft)
29.09.2014 20:30 12,6 C 86 % 1026,8 hPa 0,0 l/m 0,0 km/h (0 Bft) S-SO 157 10,3 C 22,8 C 0,0 km/h (0 Bft)
29.09.2014 20:40 12,6 C 86 % 1026,8 hPa 0,0 l/m 0,0 km/h (0 Bft) S-SO 157 10,3 C 22,8 C 0,0 km/h (0 Bft)
29.09.2014 20:50 13,0 C 87 % 1027,1 hPa 0,0 l/m 0,0 km/h (0 Bft) S-SO 157 10,9 C 22,8 C 0,0 km/h (0 Bft)
29.09.2014 21:00 13,4 C 88 % 1027,1 hPa 0,0 l/m 0,0 km/h (0 Bft) S-SO 157 11,5 C 22,8 C 0,0 km/h (0 Bft)
29.09.2014 21:10 12,8 C 88 % 1027,4 hPa 0,0 l/m 0,0 km/h (0 Bft) S-SO 157 10,9 C 22,8 C 0,0 km/h (0 Bft)
29.09.2014 21:20 12,9 C 88 % 1027,4 hPa 0,0 l/m 0,0 km/h (0 Bft) S-SO 157 11,0 C 22,8 C 0,0 km/h (0 Bft)
29.09.2014 21:30 12,1 C 88 % 1027,3 hPa 0,0 l/m 0,0 km/h (0 Bft) S-SO 157 10,2 C 22,8 C 0,0 km/h (0 Bft)
29.09.2014 21:40 12,3 C 89 % 1027,3 hPa 0,0 l/m 0,0 km/h (0 Bft) S-SO 157 10,5 C 22,8 C 0,0 km/h (0 Bft)
29.09.2014 21:50 11,7 C 89 % 1027,6 hPa 0,0 l/m 0,0 km/h (0 Bft) S-SO 157 9,9 C 22,8 C 0,0 km/h (0 Bft)
29.09.2014 22:00 11,5 C 89 % 1027,6 hPa 0,0 l/m 0,0 km/h (0 Bft) S-SO 157 9,8 C 22,8 C 0,0 km/h (0 Bft)
29.09.2014 22:10 11,6 C 89 % 1027,6 hPa 0,0 l/m 0,0 km/h (0 Bft) S-SO 157 9,8 C 22,8 C 0,0 km/h (0 Bft)
29.09.2014 22:20 11,2 C 89 % 1027,6 hPa 0,0 l/m 0,0 km/h (0 Bft) S-SO 157 9,5 C 22,8 C 0,0 km/h (0 Bft)
29.09.2014 22:30 11,7 C 89 % 1027,6 hPa 0,0 l/m 0,0 km/h (0 Bft) S-SO 157 9,9 C 22,8 C 0,0 km/h (0 Bft)
29.09.2014 22:40 11,3 C 89 % 1027,6 hPa 0,0 l/m 0,0 km/h (0 Bft) S-SO 157 9,6 C 22,8 C 0,0 km/h (0 Bft)
29.09.2014 22:50 11,0 C 89 % 1027,8 hPa 0,0 l/m 0,0 km/h (0 Bft) S-SO 157 9,3 C 22,8 C 0,0 km/h (0 Bft)
29.09.2014 23:00 10,9 C 90 % 1027,8 hPa 0,0 l/m 0,0 km/h (0 Bft) S-SO 157 9,3 C 22,8 C 0,0 km/h (0 Bft)
29.09.2014 23:10 10,8 C 90 % 1027,6 hPa 0,0 l/m 0,0 km/h (0 Bft) S-SO 157 9,2 C 22,8 C 0,0 km/h (0 Bft)
29.09.2014 23:18 10,6 C 90 % 1027,6 hPa 0,0 l/m 0,0 km/h (0 Bft) S-SO 157 9,0 C 22,8 C 0,0 km/h (0 Bft)
29.09.2014 23:20 10,7 C 90 % 1027,8 hPa 0,0 l/m 0,0 km/h (0 Bft) S-SO 157 9,1 C 22,8 C 0,0 km/h (0 Bft)
29.09.2014 23:30 10,5 C 90 % 1027,8 hPa 0,0 l/m 0,0 km/h (0 Bft) S-SO 157 8,9 C 22,8 C 0,0 km/h (0 Bft)
29.09.2014 23:40 10,5 C 90 % 1027,8 hPa 0,0 l/m 0,0 km/h (0 Bft) S-SO 157 8,9 C 22,8 C 0,0 km/h (0 Bft)
29.09.2014 23:50 10,7 C 91 % 1027,9 hPa 0,0 l/m 0,0 km/h (0 Bft) S-SO 157 9,3 C 22,8 C 0,0 km/h (0 Bft)
_ Min-Zeit 07:20 15:10 20:18 - 23:50 - - 07:20 23:50 23:50
Minimum _ 8,4 C 45 % 1026,5 hPa - 0,0 km/h (0 Bft) - - 7,6 C 22,8 C 0,0 km/h (0 Bft)
_ Max-Zeit 15:10 09:30 12:00 23:50 23:50 - - 12:00 23:50 23:50
Maximum _ 25,1 C 95 % 1029,1 hPa 0,0 l/m 0,0 km/h
S-SO (0 Bft)
- - 17,9 C 22,8 C 0,0 km/h
S-SO (0 Bft)
Durchschnitt _ 14,6 C 80 % 1027,8 hPa #0,0 l/m 0,0 km/h (0 Bft) - - - 10,7 C 22,8 C 0,0 km/h (0 Bft)